Location: Laterina
(43.5167°N, 11.7167°E)
Time: 16:36:51
(UTC+00:00)

USA 234 - Pass Details

Date: 24 September 2020
Orbit: 1102 x 1106 km, 123.0° (Epoch: 16 October)

Event Time Altitude Azimuth Distance (km) Brightness Sun altitude
Exits shadow 19:38:13 32° 185° (S) 1,806 4.2 -27.4°
Drops below altitude 10° 19:41:45 10° 205° (SSW) 2,954 5.5 -28.0°
Sets 19:44:20 0° 211° (SSW) 3,910 6.2 -28.4°
